Flag for U.S.A. Weather past 2 weeks in San Diego, California, U.S.A.

Now
73 °F

Scattered clouds.


Feels Like: 75 °F
Forecast: 67 / 77 °F
Wind: 13 mph from Northwest

Location: San Diego - North Island

Current Time: Jul 29, 2015 at 3:13:03 PM

Latest Report: Jul 29, 2015 at 1:52 PM


Visibility: 10 mi

Pressure: 29.94 "Hg

Humidity: 71%

Dew point: 63 °F

Location of San DiegoLocation

Historic Weather in San Diego — Graph

°F

San Diego temperature yesterday

Maximum temperature yesterday: 73 °F (at 11:52 AM)
Minimum temperature yesterday: 67 °F (at 12:52 AM)
Average temperature yesterday: 69 °F

Past Weeks' High & Low Weather Summary

 TemperatureHumidityPressure
High82 °F (Jul 19, 12:52 PM)100% (Jul 20, 5:52 AM)30.06 "Hg (Jul 20, 5:52 AM)
Low64 °F (Jul 16, 5:52 AM)56% (Jul 19, 8:52 AM)29.81 "Hg (Jul 17, 5:52 PM)
Average70 °F80%29.93 "Hg
* Reported Jul 14 1:52 PM — Jul 29 1:52 PM, San Diego, Weather by CustomWeather, © 2015

Note: Actual official high and low records may vary slightly from our data, if they occured in-between our weather recording intervals... More about our weather records

Advertising

San Diego weather history for previous 24 hours

 ConditionsComfort  
Time TempWeatherWind HumidityBarometerVisibility
1:52 PM
Wed, Jul 29
73 °FScattered clouds.13 mph71%29.94 "Hg10 mi
12:52 PM73 °FScattered clouds.9 mph74%29.94 "Hg10 mi
11:52 AM73 °FScattered clouds.10 mph74%29.95 "Hg10 mi
10:52 AM72 °FScattered clouds.7 mph73%29.95 "Hg10 mi
9:52 AM71 °FPartly sunny.7 mph76%29.94 "Hg10 mi
8:52 AM70 °FOvercast.No wind79%29.93 "Hg9 mi
7:52 AM69 °FOvercast.5 mph81%29.93 "Hg9 mi
6:52 AM68 °FPassing clouds.No wind84%29.91 "Hg9 mi
5:52 AM68 °FPassing clouds.No wind84%29.90 "Hg10 mi
4:52 AM68 °FPassing clouds.3 mph82%29.89 "Hg10 mi
3:52 AM68 °FPassing clouds.3 mph82%29.89 "Hg10 mi
2:52 AM68 °FPassing clouds.No wind82%29.90 "Hg10 mi
1:52 AM67 °FPassing clouds.No wind87%29.90 "Hg10 mi
12:52 AM67 °FPassing clouds.No wind85%29.90 "Hg10 mi
11:52 PM
Tue, Jul 28
67 °FPassing clouds.3 mph85%29.91 "Hg10 mi
10:52 PM67 °FPassing clouds.No wind87%29.91 "Hg10 mi
9:52 PM67 °FPassing clouds.3 mph85%29.90 "Hg10 mi
8:52 PM68 °FPassing clouds.3 mph82%29.88 "Hg10 mi
7:52 PM68 °FScattered clouds.3 mph78%29.87 "Hg10 mi
6:52 PM69 °FScattered clouds.9 mph79%29.86 "Hg10 mi
5:52 PM70 °FPassing clouds.9 mph73%29.85 "Hg10 mi
4:52 PM71 °FPassing clouds.8 mph71%29.85 "Hg10 mi
3:52 PM71 °FPassing clouds.10 mph71%29.85 "Hg10 mi
Weather by CustomWeather, © 2015

See weather overviewHow to use our weather pages